Pacific Titan — WCZ6844 — position and weather

sailwx.info

Track history (hours):
 
Tides and Currents Weather Stations Pressure Air Temp Water Temp Dewpoint Dewpoint Depression Visibility Wind Speed Wind Dir Waves Ship Positions

Pacific Titan

More information available from US FCC via Universal Licensing System and Coast Guard Vessel Documentation Center.

Last reported at 2014-Jul-25 20:24 UTC. Time now 2014-Jul-31 21:41 UTC.
Position N 52°16' W 128°25'.

Type: Tow > 200 m length. MMSI: 338855000.

Date/timePositionNaut miles runAvg speedWind from/ knotsBaromVisibWave heightAir tempDewpointWater temp
2014-Jul-25 20:24N 52°16' W 128°25'9 9.8
2014-Jul-25 19:32N 52°14' W 128°11'7 7.1
2014-Jul-25 18:34N 52°07' W 128°08'9 8.6
2014-Jul-25 17:33N 52°03' W 127°55'31 9.8
2014-Jul-25 14:21N 51°32' W 127°53'8 9.6
2014-Jul-25 13:33N 51°24' W 127°53'9 9.4
2014-Jul-25 12:33N 51°14' W 127°52'10 9.9
2014-Jul-25 11:33N 51°06' W 127°45'1010.5
2014-Jul-25 10:33N 50°59' W 127°33'1110.7
2014-Jul-25 09:31N 50°52' W 127°18'10 9.7
2014-Jul-25 08:31N 50°47' W 127°05'11 9.6
2014-Jul-25 07:23N 50°40' W 126°52'9 9.7
2014-Jul-25 06:30N 50°35' W 126°42'9 9.0
2014-Jul-25 05:31N 50°30' W 126°30'1110.1
2014-Jul-25 04:23N 50°29' W 126°12'3310.5
2014-Jul-25 01:16N 50°17' W 125°24'10 9.7
2014-Jul-25 00:14N 50°07' W 125°20'7 8.4
2014-Jul-24 23:25N 50°02' W 125°13'7 8.0
2014-Jul-24 22:33N 49°57' W 125°06'1010.2
2014-Jul-24 21:33N 49°50' W 124°55'1010.3
2014-Jul-24 20:33N 49°43' W 124°42'1010.3
2014-Jul-24 19:33N 49°37' W 124°30'10 9.8
2014-Jul-24 18:33N 49°32' W 124°17'10 9.9
2014-Jul-24 17:33N 49°27' W 124°04'10 9.7
2014-Jul-24 16:33N 49°22' W 123°51'9 9.4
2014-Jul-24 15:34N 49°16' W 123°40'10 9.9
2014-Jul-24 14:34N 49°09' W 123°29'10 9.8
2014-Jul-24 13:34N 49°03' W 123°18'9 8.8
2014-Jul-24 12:34N 48°57' W 123°08'9 9.4
2014-Jul-24 11:33N 48°50' W 122°57'9 9.4
2014-Jul-24 10:34N 48°45' W 122°46'9 9.0
2014-Jul-24 09:34N 48°36' W 122°45'1010.1
2014-Jul-24 08:34N 48°26' W 122°44'10 9.7
2014-Jul-24 07:34N 48°17' W 122°47'9 8.5
2014-Jul-24 06:31N 48°09' W 122°42'1010.1
2014-Jul-24 05:31N 47°60' W 122°35'410.3
2014-Jul-24 05:09N 47°57' W 122°31'610.0
2014-Jul-24 04:34N 47°52' W 122°27'020.1
2014-Jul-24 04:34N 47°52' W 122°27'1010.5
2014-Jul-24 03:34N 47°41' W 122°27'011.4
2014-Jul-24 03:33N 47°41' W 122°27'8 7.6
2014-Jul-24 02:33N 47°34' W 122°21'0 0.0
2014-Jul-24 02:33N 47°34' W 122°21'1 1.3
2014-Jul-24 01:33N 47°33' W 122°21'0 0.0
2014-Jul-24 01:11N 47°33' W 122°21'0 0.0
2014-Jul-24 00:34N 47°33' W 122°21'0 0.1
2014-Jul-24 00:31N 47°33' W 122°21'0 0.0
2014-Jul-23 23:34N 47°33' W 122°21'0 0.0
2014-Jul-23 23:30N 47°33' W 122°21'2 1.7
2014-Jul-23 22:34N 47°35' W 122°22'5 9.1
2014-Jul-23 21:58N 47°39' W 122°26'2 4.5
2014-Jul-23 21:34N 47°40' W 122°24'0 3.0
2014-Jul-23 21:33N 47°40' W 122°24'1 1.5
2014-Jul-23 20:34N 47°39' W 122°22'0 0.4
2014-Jul-23 20:33N 47°39' W 122°22'0 0.0
2014-Jul-22 22:33N 47°39' W 122°22'0 0.1
2014-Jul-22 22:31N 47°39' W 122°22'0 0.0
2014-Jul-22 21:34N 47°39' W 122°22'0 0.1
2014-Jul-22 21:30N 47°39' W 122°22'0 0.0
2014-Jul-22 20:34N 47°39' W 122°22'0 0.1
2014-Jul-22 20:30N 47°39' W 122°22'0 0.0
2014-Jul-22 19:33N 47°39' W 122°22'0 0.1
2014-Jul-22 19:30N 47°39' W 122°22'0 0.0
2014-Jul-22 18:33N 47°39' W 122°22'0 0.0
2014-Jul-22 18:30N 47°39' W 122°22'0 0.0
2014-Jul-22 17:33N 47°39' W 122°22'0 0.0
2014-Jul-22 17:29N 47°39' W 122°22'0 0.0
2014-Jul-22 16:33N 47°39' W 122°22'0 0.0
2014-Jul-22 16:29N 47°39' W 122°22'0 0.0
2014-Jul-22 15:33N 47°39' W 122°22'0 0.5
2014-Jul-22 15:28N 47°39' W 122°22'0 0.0
2014-Jul-22 14:34N 47°39' W 122°22'0 1.4
2014-Jul-22 14:33N 47°39' W 122°22'0 0.0
2014-Jul-22 08:33N 47°39' W 122°22'0 0.2
2014-Jul-22 08:32N 47°39' W 122°22'2 1.6
2014-Jul-22 07:33N 47°40' W 122°24'0 3.6
2014-Jul-22 07:31N 47°40' W 122°24'7 7.0
2014-Jul-22 06:33N 47°34' W 122°21'1 1.2
2014-Jul-22 05:33N 47°35' W 122°22'0 5.3
2014-Jul-22 05:29N 47°35' W 122°22'7 7.5
2014-Jul-22 04:34N 47°40' W 122°28'010.8
2014-Jul-22 04:33N 47°40' W 122°28'10 9.7
2014-Jul-22 03:34N 47°50' W 122°28'010.8
2014-Jul-22 03:33N 47°50' W 122°28'9 8.7
2014-Jul-22 02:33N 47°57' W 122°35'11 8.3
2014-Jul-22 01:16N 48°07' W 122°41'6 8.2
2014-Jul-22 00:30N 48°12' W 122°48'9 9.7
2014-Jul-21 23:33N 48°21' W 122°46'9 9.1
2014-Jul-21 22:33N 48°30' W 122°45'8 7.8
2014-Jul-21 21:33N 48°38' W 122°44'8 7.8
2014-Jul-21 20:33N 48°45' W 122°48'2 8.7
2014-Jul-21 20:18N 48°46' W 122°51'810.1
2014-Jul-21 19:33N 48°50' W 123°00'8 8.4
2014-Jul-21 18:33N 48°56' W 123°10'9 9.2
2014-Jul-21 17:33N 49°01' W 123°21'9 9.0
2014-Jul-21 16:33N 49°08' W 123°31'9 9.2
2014-Jul-21 15:33N 49°14' W 123°42'9 9.3
2014-Jul-21 14:33N 49°20' W 123°53'9 9.4
2014-Jul-21 13:33N 49°26' W 124°04'9 9.5
2014-Jul-21 12:33N 49°32' W 124°15'10 9.6
2014-Jul-21 11:33N 49°36' W 124°28'10 9.3
2014-Jul-21 10:32N 49°42' W 124°40'9 9.2
2014-Jul-21 09:31N 49°48' W 124°51'10 9.5
2014-Jul-21 08:29N 49°54' W 125°03'11 9.8
2014-Jul-21 07:24N 50°02' W 125°14'910.6
2014-Jul-21 06:33N 50°10' W 125°22'37 9.1
2014-Jul-21 02:28N 50°29' W 126°11'9 9.4
2014-Jul-21 01:33N 50°30' W 126°25'10 8.7
2014-Jul-21 00:24N 50°32' W 126°40'7 8.2
2014-Jul-20 23:32N 50°38' W 126°47'7 7.1
2014-Jul-20 22:33N 50°42' W 126°56'9 9.3
2014-Jul-20 21:33N 50°46' W 127°09'10 9.7
2014-Jul-20 20:33N 50°53' W 127°20'9 9.0
2014-Jul-20 19:33N 50°58' W 127°31'9 8.7
2014-Jul-20 18:33N 51°04' W 127°42'8 8.5
2014-Jul-20 17:33N 51°10' W 127°51'10 9.8
2014-Jul-20 16:32N 51°20' W 127°54'10 9.7
2014-Jul-20 15:33N 51°30' W 127°52'29 9.5
2014-Jul-20 12:28N 51°59' W 127°56'10 7.6
2014-Jul-20 11:05N 52°06' W 128°08'4 7.4
2014-Jul-20 10:30N 52°11' W 128°07'7 7.1
2014-Jul-20 09:32N 52°15' W 128°16'139 8.2
2014-Jul-19 16:33N 54°09' W 130°27'9 9.3
2014-Jul-19 15:33N 54°18' W 130°35'10 9.4
2014-Jul-19 14:32N 54°27' W 130°40'10 9.8
2014-Jul-19 13:32N 54°36' W 130°44'  
Track history (hours):
 
Tides and Currents Weather Stations Pressure Air Temp Water Temp Dewpoint Dewpoint Depression Visibility Wind Speed Wind Dir Waves Ship Positions

Pacific Titan

More information available from US FCC via Universal Licensing System and Coast Guard Vessel Documentation Center.

Last reported at 2014-Jul-25 20:24 UTC. Time now 2014-Jul-31 21:41 UTC.
Position N 52°16' W 128°25'.

Type: Tow > 200 m length. MMSI: 338855000.

Date/timePositionNaut miles runAvg speedWind from/ knotsBaromVisibWave heightAir tempDewpointWater temp
2014-Jul-25 20:24N 52°16' W 128°25'9 9.8
2014-Jul-25 19:32N 52°14' W 128°11'7 7.1
2014-Jul-25 18:34N 52°07' W 128°08'9 8.6
2014-Jul-25 17:33N 52°03' W 127°55'31 9.8
2014-Jul-25 14:21N 51°32' W 127°53'8 9.6
2014-Jul-25 13:33N 51°24' W 127°53'9 9.4
2014-Jul-25 12:33N 51°14' W 127°52'10 9.9
2014-Jul-25 11:33N 51°06' W 127°45'1010.5
2014-Jul-25 10:33N 50°59' W 127°33'1110.7
2014-Jul-25 09:31N 50°52' W 127°18'10 9.7
2014-Jul-25 08:31N 50°47' W 127°05'11 9.6
2014-Jul-25 07:23N 50°40' W 126°52'9 9.7
2014-Jul-25 06:30N 50°35' W 126°42'9 9.0
2014-Jul-25 05:31N 50°30' W 126°30'1110.1
2014-Jul-25 04:23N 50°29' W 126°12'3310.5
2014-Jul-25 01:16N 50°17' W 125°24'10 9.7
2014-Jul-25 00:14N 50°07' W 125°20'7 8.4
2014-Jul-24 23:25N 50°02' W 125°13'7 8.0
2014-Jul-24 22:33N 49°57' W 125°06'1010.2
2014-Jul-24 21:33N 49°50' W 124°55'1010.3
2014-Jul-24 20:33N 49°43' W 124°42'1010.3
2014-Jul-24 19:33N 49°37' W 124°30'10 9.8
2014-Jul-24 18:33N 49°32' W 124°17'10 9.9
2014-Jul-24 17:33N 49°27' W 124°04'10 9.7
2014-Jul-24 16:33N 49°22' W 123°51'9 9.4
2014-Jul-24 15:34N 49°16' W 123°40'10 9.9
2014-Jul-24 14:34N 49°09' W 123°29'10 9.8
2014-Jul-24 13:34N 49°03' W 123°18'9 8.8
2014-Jul-24 12:34N 48°57' W 123°08'9 9.4
2014-Jul-24 11:33N 48°50' W 122°57'9 9.4
2014-Jul-24 10:34N 48°45' W 122°46'9 9.0
2014-Jul-24 09:34N 48°36' W 122°45'1010.1
2014-Jul-24 08:34N 48°26' W 122°44'10 9.7
2014-Jul-24 07:34N 48°17' W 122°47'9 8.5
2014-Jul-24 06:31N 48°09' W 122°42'1010.1
2014-Jul-24 05:31N 47°60' W 122°35'410.3
2014-Jul-24 05:09N 47°57' W 122°31'610.0
2014-Jul-24 04:34N 47°52' W 122°27'020.1
2014-Jul-24 04:34N 47°52' W 122°27'1010.5
2014-Jul-24 03:34N 47°41' W 122°27'011.4
2014-Jul-24 03:33N 47°41' W 122°27'8 7.6
2014-Jul-24 02:33N 47°34' W 122°21'0 0.0
2014-Jul-24 02:33N 47°34' W 122°21'1 1.3
2014-Jul-24 01:33N 47°33' W 122°21'0 0.0
2014-Jul-24 01:11N 47°33' W 122°21'0 0.0
2014-Jul-24 00:34N 47°33' W 122°21'0 0.1
2014-Jul-24 00:31N 47°33' W 122°21'0 0.0
2014-Jul-23 23:34N 47°33' W 122°21'0 0.0
2014-Jul-23 23:30N 47°33' W 122°21'2 1.7
2014-Jul-23 22:34N 47°35' W 122°22'5 9.1
2014-Jul-23 21:58N 47°39' W 122°26'2 4.5
2014-Jul-23 21:34N 47°40' W 122°24'0 3.0
2014-Jul-23 21:33N 47°40' W 122°24'1 1.5
2014-Jul-23 20:34N 47°39' W 122°22'0 0.4
2014-Jul-23 20:33N 47°39' W 122°22'0 0.0
2014-Jul-22 22:33N 47°39' W 122°22'0 0.1
2014-Jul-22 22:31N 47°39' W 122°22'0 0.0
2014-Jul-22 21:34N 47°39' W 122°22'0 0.1
2014-Jul-22 21:30N 47°39' W 122°22'0 0.0
2014-Jul-22 20:34N 47°39' W 122°22'0 0.1
2014-Jul-22 20:30N 47°39' W 122°22'0 0.0
2014-Jul-22 19:33N 47°39' W 122°22'0 0.1
2014-Jul-22 19:30N 47°39' W 122°22'0 0.0
2014-Jul-22 18:33N 47°39' W 122°22'0 0.0
2014-Jul-22 18:30N 47°39' W 122°22'0 0.0
2014-Jul-22 17:33N 47°39' W 122°22'0 0.0
2014-Jul-22 17:29N 47°39' W 122°22'0 0.0
2014-Jul-22 16:33N 47°39' W 122°22'0 0.0
2014-Jul-22 16:29N 47°39' W 122°22'0 0.0
2014-Jul-22 15:33N 47°39' W 122°22'0 0.5
2014-Jul-22 15:28N 47°39' W 122°22'0 0.0
2014-Jul-22 14:34N 47°39' W 122°22'0 1.4
2014-Jul-22 14:33N 47°39' W 122°22'0 0.0
2014-Jul-22 08:33N 47°39' W 122°22'0 0.2
2014-Jul-22 08:32N 47°39' W 122°22'2 1.6
2014-Jul-22 07:33N 47°40' W 122°24'0 3.6
2014-Jul-22 07:31N 47°40' W 122°24'7 7.0
2014-Jul-22 06:33N 47°34' W 122°21'1 1.2
2014-Jul-22 05:33N 47°35' W 122°22'0 5.3
2014-Jul-22 05:29N 47°35' W 122°22'7 7.5
2014-Jul-22 04:34N 47°40' W 122°28'010.8
2014-Jul-22 04:33N 47°40' W 122°28'10 9.7
2014-Jul-22 03:34N 47°50' W 122°28'010.8
2014-Jul-22 03:33N 47°50' W 122°28'9 8.7
2014-Jul-22 02:33N 47°57' W 122°35'11 8.3
2014-Jul-22 01:16N 48°07' W 122°41'6 8.2
2014-Jul-22 00:30N 48°12' W 122°48'9 9.7
2014-Jul-21 23:33N 48°21' W 122°46'9 9.1
2014-Jul-21 22:33N 48°30' W 122°45'8 7.8
2014-Jul-21 21:33N 48°38' W 122°44'8 7.8
2014-Jul-21 20:33N 48°45' W 122°48'2 8.7
2014-Jul-21 20:18N 48°46' W 122°51'810.1
2014-Jul-21 19:33N 48°50' W 123°00'8 8.4
2014-Jul-21 18:33N 48°56' W 123°10'9 9.2
2014-Jul-21 17:33N 49°01' W 123°21'9 9.0
2014-Jul-21 16:33N 49°08' W 123°31'9 9.2
2014-Jul-21 15:33N 49°14' W 123°42'9 9.3
2014-Jul-21 14:33N 49°20' W 123°53'9 9.4
2014-Jul-21 13:33N 49°26' W 124°04'9 9.5
2014-Jul-21 12:33N 49°32' W 124°15'10 9.6
2014-Jul-21 11:33N 49°36' W 124°28'10 9.3
2014-Jul-21 10:32N 49°42' W 124°40'9 9.2
2014-Jul-21 09:31N 49°48' W 124°51'10 9.5
2014-Jul-21 08:29N 49°54' W 125°03'11 9.8
2014-Jul-21 07:24N 50°02' W 125°14'910.6
2014-Jul-21 06:33N 50°10' W 125°22'37 9.1
2014-Jul-21 02:28N 50°29' W 126°11'9 9.4
2014-Jul-21 01:33N 50°30' W 126°25'10 8.7
2014-Jul-21 00:24N 50°32' W 126°40'7 8.2
2014-Jul-20 23:32N 50°38' W 126°47'7 7.1
2014-Jul-20 22:33N 50°42' W 126°56'9 9.3
2014-Jul-20 21:33N 50°46' W 127°09'10 9.7
2014-Jul-20 20:33N 50°53' W 127°20'9 9.0
2014-Jul-20 19:33N 50°58' W 127°31'9 8.7
2014-Jul-20 18:33N 51°04' W 127°42'8 8.5
2014-Jul-20 17:33N 51°10' W 127°51'10 9.8
2014-Jul-20 16:32N 51°20' W 127°54'10 9.7
2014-Jul-20 15:33N 51°30' W 127°52'29 9.5
2014-Jul-20 12:28N 51°59' W 127°56'10 7.6
2014-Jul-20 11:05N 52°06' W 128°08'4 7.4
2014-Jul-20 10:30N 52°11' W 128°07'7 7.1
2014-Jul-20 09:32N 52°15' W 128°16'139 8.2
2014-Jul-19 16:33N 54°09' W 130°27'9 9.3
2014-Jul-19 15:33N 54°18' W 130°35'10 9.4
2014-Jul-19 14:32N 54°27' W 130°40'10 9.8
2014-Jul-19 13:32N 54°36' W 130°44'  

Dump ship's entire track history